Brookings, OR

10:47 AM PDT on May 22, 2017 (GMT -0700)
Brookings State

Weather History for KBOK - August, 2013

Change the Weather History Date:

Monday, August 19, 2013

  Actual Average Record
Temperature  
Mean Temperature 77 °F -  
Max Temperature 91 °F 67 °F 91 °F (2013)
Min Temperature 63 °F 52 °F -56 °F (2006)
Cooling Degree Days 12    
Growing Degree Days 27 (Base 50)    
Moisture  
Dew Point 57 °F    
Average Humidity 52    
Maximum Humidity 75    
Minimum Humidity 32    
Precipitation  
Precipitation 0.00 in - - ()
Sea Level Pressure  
Sea Level Pressure 29.92 in    
Wind  
Wind Speed 4 mph (NW)    
Max Wind Speed 15 mph    
Max Gust Speed 22 mph    
Visibility 10 miles    
Events      
Averages and records for this station are not official NWS values.
T = Trace of Precipitation, MM = Missing Value Source: NWS Daily Summary

Daily Weather History Graph

Daily Weather History Graph

Search for Another Location

Airport or City:

Trip Planner

Search our weather history database for the weather conditions in past years. The results will help you decide how hot, cold, wet, or windy it might be!

Date:

Astronomy

Aug. 19, 2013 Rise Set
Actual Time 6:29 AM PDT 8:11 PM PDT
Civil Twilight 5:59 AM PDT 8:40 PM PDT
Nautical Twilight 5:23 AM PDT 9:16 PM PDT
Astronomical Twilight 4:44 AM PDT 9:55 PM PDT
Moon 7:06 PM PDT (8/19) 4:54 AM PDT (8/19)
Length of Visible Light 14h 40m
Length of Day
13h 41m
Waxing Gibbous, 98% of the Moon is Illuminated
Aug 19
Waxing Gibbous
Aug 20
Full
Aug 28
Last Quarter
Sep 5
New
Sep 12
First Quarter

Hourly Weather History & Observations

Time (PDT) Temp. Heat Index Dew Point Humidity Pressure Visibility Wind Dir Wind Speed Gust Speed Precip Events Conditions
12:56 AM 63.9 °F - 55.9 °F 75% 29.94 in 9.0 mi Calm Calm - N/A   Clear
1:56 AM 66.9 °F - 55.9 °F 68% 29.93 in 10.0 mi Calm Calm - N/A   Clear
2:56 AM 64.9 °F - 54.9 °F 70% 29.92 in 10.0 mi Calm Calm - N/A   Clear
3:56 AM 65.8 °F - 54.9 °F 68% 29.91 in 10.0 mi Variable 3.5 mph - N/A   Clear
4:56 AM 64.9 °F - 54.0 °F 68% 29.92 in 10.0 mi Calm Calm - N/A   Clear
5:56 AM 70.0 °F - 52.9 °F 55% 29.92 in 10.0 mi Variable 3.5 mph - N/A   Clear
6:56 AM 66.9 °F - 54.9 °F 65% 29.94 in 10.0 mi Calm Calm - N/A   Clear
7:56 AM 66.9 °F - 56.8 °F 70% 29.96 in 10.0 mi Calm Calm - N/A   Clear
8:56 AM 73.9 °F - 57.9 °F 57% 29.96 in 10.0 mi Calm Calm - N/A   Clear
9:56 AM 86.9 °F 85.9 °F 57.9 °F 37% 29.96 in 10.0 mi South 4.6 mph - N/A   Clear
10:56 AM 88.0 °F 86.7 °F 56.8 °F 35% 29.96 in 10.0 mi NW 10.4 mph - N/A   Clear
11:56 AM 88.9 °F 87.7 °F 57.9 °F 35% 29.96 in 10.0 mi WNW 9.2 mph - N/A   Clear
12:56 PM 91.9 °F 90.8 °F 57.9 °F 32% 29.94 in 10.0 mi NW 10.4 mph - N/A   Clear
1:56 PM 90.0 °F 89.1 °F 59.0 °F 35% 29.94 in 10.0 mi NNW 13.8 mph - N/A   Clear
2:56 PM 90.0 °F 89.4 °F 59.9 °F 36% 29.92 in 10.0 mi NW 11.5 mph 21.9 mph N/A   Clear
3:56 PM 90.0 °F 89.1 °F 59.0 °F 35% 29.91 in 10.0 mi NNW 12.7 mph 19.6 mph N/A   Clear
4:56 PM 88.9 °F 87.7 °F 57.9 °F 35% 29.89 in 10.0 mi NNW 15.0 mph - N/A   Clear
5:56 PM 84.9 °F 84.2 °F 57.9 °F 40% 29.88 in 10.0 mi NW 13.8 mph - N/A   Clear
6:56 PM 81.9 °F 82.1 °F 59.0 °F 46% 29.88 in 10.0 mi NNW 12.7 mph - N/A   Clear
7:56 PM 77.9 °F - 57.9 °F 50% 29.88 in 10.0 mi NNW 10.4 mph - N/A   Clear
8:56 PM 75.9 °F - 57.9 °F 54% 29.89 in 10.0 mi Variable 4.6 mph - N/A   Clear
9:56 PM 72.0 °F - 57.9 °F 61% 29.90 in 10.0 mi Calm Calm - N/A   Clear
10:56 PM 72.9 °F - 56.8 °F 57% 29.90 in 10.0 mi Variable 3.5 mph - N/A   Clear
11:56 PM 70.9 °F - 56.8 °F 61% 29.90 in 10.0 mi WNW 3.5 mph - N/A   Clear